Wind_Speed
93 92 92 91 91 91 90 90 90 90 89 90 89 89 89 88 88 87 87 86 86 85 85 85 84 84 84 84 83 83 83 82 82 81 80 79 78 77 75 74 73 71 70 69 67 66 65 64 63 62 61 61 60 59 57 56 55 53 52 51 50 49 48 47 46 44 43 42 40 39 38 38 38 38 38 38 38 38 38 37 37 37 36 36 36 35
92 91 91 90 90 90 89 89 89 89 89 89 89 88 88 87 87 87 86 86 85 85 85 84 84 84 84 83 83 82 82 81 80 79 78 77 76 75 74 73 71 70 68 67 66 65 64 63 62 61 61 60 59 57 56 55 54 53 52 51 50 49 48 47 46 44 43 41 40 39 39 38 38 38 38 38 38 38 38 38 38 37 37 36 36 36
90 90 90 89 89 89 89 89 89 89 88 88 88 88 87 87 86 86 85 85 85 85 84 84 84 83 83 83 82 81 80 80 79 78 77 76 75 73 72 71 69 68 67 66 65 64 63 62 61 61 60 59 57 56 55 54 53 52 52 51 50 49 48 47 45 44 43 41 40 39 39 38 38 38 38 39 39 39 39 39 38 38 38 37 37 36
89 89 89 89 89 88 88 88 88 88 88 88 87 87 86 86 86 85 85 84 84 84 84 84 83 83 82 81 81 80 79 78 77 76 75 74 73 72 70 69 68 67 65 64 64 63 62 61 60 59 58 57 56 55 54 54 53 52 51 51 50 49 47 46 45 44 43 42 41 40 39 39 39 39 39 39 39 39 39 39 39 39 38 38 37 37
89 89 89 88 88 88 88 88 88 88 87 87 87 86 86 85 85 85 84 84 84 84 83 83 82 82 81 80 79 78 77 76 75 74 74 72 71 70 69 67 66 65 64 63 62 61 61 60 59 58 57 56 55 54 54 53 53 52 51 51 49 48 47 46 45 44 43 42 41 40 40 39 39 39 39 40 40 40 40 40 39 39 39 39 38 38
89 88 88 88 88 88 88 88 87 87 87 86 86 85 85 84 84 84 84 83 83 83 82 82 81 80 79 78 77 76 76 75 74 73 72 71 70 68 67 66 65 64 63 62 61 60 59 58 58 57 56 55 54 54 53 53 52 52 51 50 49 48 47 46 45 44 43 42 41 41 40 40 40 40 40 40 40 40 40 40 40 40 39 39 39 38
89 88 88 88 88 87 87 87 87 86 86 85 85 85 84 84 83 83 83 82 82 82 81 80 79 78 77 76 76 75 74 73 72 71 70 69 68 67 65 64 63 62 61 60 59 59 58 57 56 55 55 54 53 53 53 53 52 52 51 50 49 48 47 46 45 44 43 43 42 41 41 41 41 41 41 41 41 41 40 40 40 40 39 39 39 39
88 88 88 87 87 87 87 86 86 85 85 84 84 84 83 83 83 82 82 82 81 80 79 78 78 77 76 75 74 73 72 72 71 70 69 68 66 65 64 63 62 61 60 59 58 57 56 55 55 54 54 53 53 53 53 53 52 51 51 50 49 48 47 46 45 44 44 43 43 42 42 42 42 42 42 42 41 41 41 41 40 40 40 40 40 39
87 87 87 87 86 86 86 85 85 84 84 83 83 83 82 82 82 82 81 80 79 78 77 76 76 75 74 73 72 72 71 70 69 68 67 66 65 64 62 61 60 59 58 57 56 55 55 54 54 53 53 53 53 53 53 52 52 51 50 49 48 47 46 46 45 45 44 44 43 43 43 43 43 42 42 42 42 42 41 41 41 40 40 40 40 40
87 86 86 86 86 85 84 84 84 84 83 82 82 82 81 81 80 80 79 79 78 76 75 74 74 73 73 72 71 70 69 68 67 66 65 64 63 62 61 59 58 57 56 55 55 54 53 53 53 53 53 53 53 52 52 52 51 50 49 48 48 47 46 46 45 45 44 44 44 43 43 43 43 43 43 43 42 42 42 41 41 41 41 40 40 40
86 85 85 85 85 84 83 83 83 82 82 81 81 81 80 79 78 78 77 77 76 75 74 73 72 71 71 70 69 68 67 66 65 64 63 62 61 60 59 57 56 56 55 54 53 53 52 52 52 52 52 52 52 52 52 51 50 49 49 48 47 47 46 46 45 45 44 44 44 44 44 44 44 43 43 43 43 42 42 42 41 41 41 41 41 41
85 84 84 84 83 83 82 82 81 81 81 80 80 79 79 78 77 76 75 74 74 73 72 71 71 70 69 68 68 67 65 64 63 62 61 60 59 57 56 56 55 54 53 53 52 52 52 52 52 52 52 52 52 51 51 50 49 48 48 47 47 46 46 46 45 45 45 44 44 44 44 44 44 44 43 43 43 43 42 42 42 42 42 42 42 42
83 83 83 82 82 81 81 80 80 80 79 79 78 77 77 76 75 74 73 72 72 71 70 70 69 68 67 66 65 64 63 62 61 60 59 58 57 56 55 54 53 53 52 52 51 51 51 51 51 51 51 51 51 50 50 49 48 48 47 47 46 46 46 46 45 45 45 45 45 44 44 44 44 44 44 43 43 43 42 42 42 42 42 42 42 42
82 82 81 81 80 80 79 79 79 78 78 77 76 75 74 73 73 72 71 71 70 69 68 68 67 66 65 64 63 62 61 60 59 58 57 56 55 54 53 53 52 52 51 51 51 51 51 51 51 51 50 50 50 49 49 48 48 47 47 46 46 46 46 46 45 45 45 45 45 45 45 44 44 44 44 43 43 43 43 43 42 42 42 43 43 43
80 80 80 79 79 78 78 77 77 77 76 75 74 73 72 71 71 70 69 69 68 67 67 66 65 64 63 62 61 60 59 58 57 56 55 54 53 53 52 52 52 52 51 51 51 51 50 50 50 50 50 49 49 48 48 47 47 47 46 46 46 46 46 46 46 45 45 45 45 45 45 45 44 44 44 43 43 43 43 43 43 43 43 43 43 44
79 78 78 78 77 77 76 76 75 74 74 73 72 71 70 69 69 68 67 67 66 65 64 63 63 62 61 60 58 57 57 56 56 55 54 53 52 52 51 51 51 51 51 51 51 50 50 50 49 49 49 48 48 48 47 47 47 46 46 46 46 46 46 46 46 46 46 45 45 45 45 45 44 44 44 44 44 43 43 43 43 44 44 44 44 45
77 76 76 76 76 75 75 74 73 72 71 70 70 69 68 67 66 66 65 64 64 63 62 61 60 60 59 58 57 55 55 54 54 54 53 52 52 51 51 51 51 51 51 51 50 50 49 49 49 48 48 48 47 47 47 46 46 46 46 46 46 46 46 46 46 46 46 46 45 45 45 45 45 44 44 44 44 44 44 44 44 45 45 45 46 46
75 75 74 74 74 73 73 72 71 70 69 68 67 67 66 65 65 64 63 62 61 60 60 59 58 57 57 56 55 54 53 53 53 52 52 51 51 50 50 50 50 50 50 50 50 49 49 48 48 48 47 47 47 47 46 46 46 46 46 46 46 46 46 46 46 46 46 46 46 45 45 45 45 45 45 45 45 45 45 46 46 46 47 47 48 48
73 73 73 72 72 71 70 69 68 67 67 66 65 65 64 64 63 62 61 60 59 58 57 56 56 55 55 54 53 52 51 51 51 51 50 50 50 50 49 49 49 49 49 49 49 48 48 48 47 47 47 46 46 46 46 46 46 46 46 46 46 46 46 46 46 46 46 46 46 46 46 46 46 46 46 46 46 47 47 47 48 48 49 49 50 51
72 71 71 70 69 69 68 67 66 65 65 64 63 63 62 61 60 59 58 58 57 56 55 54 54 53 53 52 51 51 50 49 49 49 49 49 48 48 48 48 48 48 48 48 47 47 47 47 46 46 46 46 46 46 46 46 46 46 46 46 46 46 46 46 46 46 46 46 46 46 46 46 47 47 47 48 48 48 49 49 50 50 51 51 52 53
70 69 69 68 67 66 66 65 64 64 63 62 61 61 60 59 58 57 56 55 55 54 53 52 52 51 51 50 50 49 48 48 47 47 47 47 47 47 47 47 47 47 47 47 47 46 46 46 46 46 46 46 46 46 46 46 45 46 45 46 46 46 46 46 46 47 47 47 47 47 47 47 48 48 49 49 50 50 51 52 52 53 53 54 55 55
68 67 66 65 65 64 63 63 62 62 61 60 59 58 58 57 56 55 54 54 53 52 51 51 50 50 49 49 48 48 47 46 46 46 46 46 46 46 45 46 46 46 46 46 46 46 45 45 45 45 45 45 45 46 46 46 46 46 46 46 46 46 46 47 47 47 47 47 48 48 49 49 49 50 50 51 52 52 53 54 54 55 56 56 57 58
65 65 64 63 63 62 62 61 60 60 59 58 57 57 56 55 54 53 53 52 51 51 50 50 49 49 48 48 47 47 46 46 45 45 45 45 45 45 45 45 45 46 46 46 45 45 45 45 45 45 45 45 46 46 46 46 46 46 46 46 46 47 47 47 48 48 48 49 49 49 50 50 51 52 52 53 54 54 55 56 56 57 58 59 59 60
63 63 62 62 61 60 60 59 59 58 57 56 56 55 54 53 53 52 51 51 50 50 49 49 49 48 48 47 47 46 46 45 45 45 45 45 45 45 45 45 45 45 46 46 45 46 46 46 46 45 46 46 46 46 46 46 46 46 47 47 47 48 48 48 49 49 49 50 50 51 51 52 53 53 54 55 55 56 57 58 59 59 60 61 61 62
61 61 60 60 59 59 58 58 57 56 56 55 54 54 53 52 51 51 50 50 49 49 48 48 48 47 47 47 46 46 46 45 45 45 45 45 45 45 45 45 45 46 46 46 46 46 46 46 46 46 46 46 47 47 47 47 47 47 47 48 48 49 49 49 50 50 51 51 52 52 53 53 54 55 56 56 57 58 59 60 60 61 62 63 63 64
60 59 59 58 58 57 57 56 55 55 54 53 53 52 52 51 50 50 49 49 48 48 48 47 47 47 47 46 46 46 46 45 45 45 45 45 45 45 45 45 46 46 46 47 47 47 47 47 47 47 47 47 47 48 48 48 48 48 49 49 49 50 50 50 51 51 52 52 53 54 54 55 55 56 57 58 59 60 60 61 62 63 64 65 65 65
58 58 57 57 56 56 55 55 54 54 53 52 52 51 50 50 49 49 48 48 48 47 47 47 47 46 46 46 46 45 45 45 45 45 45 45 45 45 45 45 46 46 47 47 47 48 48 48 48 48 48 48 49 49 49 49 49 49 50 50 50 51 51 52 52 53 53 54 54 55 55 56 57 57 58 59 60 61 62 63 64 65 66 66 66 66
57 56 56 55 55 54 54 53 53 53 52 51 51 50 49 49 48 48 48 47 47 47 46 46 46 46 46 46 45 45 45 45 45 45 45 45 46 46 46 46 46 47 47 48 48 48 49 49 49 49 49 50 50 50 50 50 50 50 51 51 51 52 52 53 53 54 54 55 55 56 56 57 58 59 59 60 61 62 64 65 65 66 67 67 67 67
55 55 54 54 53 53 53 52 52 52 51 51 50 49 48 48 48 47 47 47 46 46 46 46 45 45 45 45 45 45 45 44 44 45 45 45 46 46 46 46 47 47 48 48 49 49 49 49 50 50 51 51 51 51 51 51 51 52 52 52 53 53 53 54 54 55 55 56 56 57 57 58 59 60 61 62 63 64 65 66 67 67 68 68 68 67
54 53 53 52 52 52 52 51 51 51 50 50 49 48 48 47 47 47 46 46 46 46 45 45 45 45 45 45 45 45 45 44 44 45 45 46 46 46 46 47 47 48 48 49 50 50 50 50 50 51 51 52 52 52 52 52 52 53 53 53 53 54 54 55 55 55 56 56 57 57 58 59 60 61 62 63 64 65 66 67 68 68 68 68 67 66
53 52 52 51 51 51 51 50 50 50 50 49 48 48 47 47 46 46 46 45 45 45 45 45 45 45 45 45 45 45 45 45 45 45 45 46 46 47 47 47 48 48 48 49 50 51 51 51 51 51 52 52 53 53 53 53 53 54 54 54 55 55 55 55 56 56 57 57 58 58 59 60 61 62 63 64 65 66 67 68 68 68 68 68 67 65
52 51 51 51 50 50 50 50 50 49 49 49 48 47 47 46 46 45 45 45 45 45 45 45 45 45 45 45 45 45 45 45 45 45 46 47 47 47 47 48 49 49 49 50 51 51 52 53 53 52 52 53 53 54 54 54 54 54 55 55 55 56 56 56 57 57 57 58 58 59 60 61 62 63 64 66 67 67 68 68 68 68 67 66 65 64
51 51 50 50 50 49 49 49 49 49 49 48 48 47 47 46 45 45 45 45 44 44 45 45 45 45 45 45 46 46 46 46 46 46 47 47 48 48 49 49 50 50 51 51 51 52 53 53 53 53 53 53 54 54 55 55 55 55 55 56 56 56 57 57 57 58 58 59 59 60 61 62 63 65 66 67 67 68 68 68 68 67 66 65 63 62
50 50 50 49 49 49 49 49 49 48 48 48 48 47 47 46 46 45 45 44 44 44 44 45 45 45 46 46 46 46 47 47 47 47 48 48 49 49 50 50 50 51 52 52 53 53 54 54 54 54 54 55 55 55 55 55 56 56 56 56 57 57 57 58 58 59 59 60 60 61 62 63 65 66 67 68 68 68 68 68 67 66 64 63 61 59
50 50 49 49 49 48 48 48 48 48 48 48 47 47 47 46 46 45 45 45 44 44 45 45 45 45 46 46 47 47 48 48 48 48 48 49 50 50 51 51 51 52 53 53 54 54 55 55 55 55 56 56 56 56 56 56 56 56 56 57 57 57 58 58 59 59 60 61 62 63 64 65 66 67 68 68 68 68 68 67 66 64 62 61 59 57
50 49 49 49 48 48 48 48 48 48 48 48 47 47 47 46 46 45 45 45 45 45 45 45 45 46 46 46 47 48 48 49 49 49 49 50 50 51 52 52 52 53 54 54 55 56 56 56 56 56 56 56 56 56 56 56 56 56 57 57 57 58 58 59 60 60 61 62 63 64 65 66 67 68 68 68 68 68 67 66 64 63 61 59 57 56
50 49 49 48 48 48 48 48 48 48 48 48 48 47 47 47 46 46 46 46 45 45 45 46 46 46 46 47 47 48 49 49 50 50 50 51 51 52 52 53 53 54 55 55 56 57 57 57 58 58 57 57 57 57 57 57 57 57 57 57 58 58 59 60 60 61 62 63 64 65 66 67 67 68 68 68 67 67 66 64 63 61 60 58 56 55
50 49 49 48 48 48 48 48 48 48 48 48 48 48 47 47 47 47 46 46 46 46 46 46 47 47 47 48 48 49 49 50 50 51 51 52 52 53 53 54 54 55 55 56 57 57 58 58 59 59 58 58 58 58 57 57 57 57 57 58 58 59 59 60 61 62 63 64 65 66 66 67 67 67 67 66 66 65 64 62 61 59 58 57 55 54
50 50 49 49 48 48 48 48 48 48 48 48 48 48 48 48 47 47 47 47 47 47 47 47 48 48 48 48 49 49 50 51 51 52 52 53 53 54 54 55 55 56 56 57 58 58 59 59 59 59 59 59 59 58 58 58 58 58 58 59 59 60 60 61 62 63 64 64 65 66 66 66 66 66 65 65 64 63 61 60 59 57 56 55 54 53
50 50 49 49 48 48 48 48 48 48 48 48 48 48 48 48 48 48 48 48 48 48 48 48 48 49 49 49 50 50 51 51 52 52 53 54 54 54 55 56 56 57 57 58 58 59 59 60 60 60 60 60 60 60 59 59 59 59 59 60 61 61 62 62 63 64 64 65 65 65 66 65 65 64 63 63 61 60 59 58 57 55 54 53 53 53
50 50 50 49 49 48 48 48 48 48 48 48 49 49 48 48 48 48 48 48 48 49 49 49 49 50 50 50 50 51 51 52 53 53 54 54 55 55 56 57 57 58 58 59 60 60 60 61 61 61 61 61 61 60 60 60 59 60 60 61 62 63 63 63 64 64 65 65 65 65 65 64 64 63 62 61 59 58 57 56 55 54 53 52 52 52
51 50 50 49 49 49 49 49 49 49 49 49 49 49 49 49 49 49 49 49 49 49 49 50 50 51 51 51 51 52 52 53 53 54 55 55 56 56 57 58 58 59 60 60 61 61 61 62 62 62 62 62 61 61 61 61 61 61 61 62 63 64 64 65 65 65 65 65 65 64 64 63 62 61 60 59 58 56 55 54 53 53 52 51 51 50
51 51 50 50 50 49 49 49 49 49 49 49 50 50 49 49 49 49 49 49 50 50 50 50 51 51 52 52 52 53 53 54 54 55 55 56 57 57 58 59 59 60 61 61 62 62 63 63 63 63 62 62 62 62 62 62 62 62 62 63 64 65 66 66 66 65 65 65 64 63 62 61 60 59 58 57 56 55 54 53 52 51 51 50 50 50
51 51 50 50 50 50 50 50 50 50 50 50 50 50 50 50 50 50 50 50 50 50 51 51 52 52 53 53 54 54 55 55 56 56 56 57 58 58 59 60 61 61 62 62 63 64 64 64 64 63 63 63 63 63 63 63 63 63 64 64 65 66 67 67 66 66 65 64 63 62 61 60 59 58 57 56 55 54 53 53 52 51 50 50 49 49
51 51 51 51 50 50 50 50 50 50 51 51 51 51 50 50 50 50 50 51 51 51 52 52 53 53 54 54 55 55 56 56 57 57 58 58 59 59 60 61 62 63 63 64 64 65 65 65 65 65 64 64 64 64 64 64 64 65 65 66 66 67 67 67 66 65 65 63 62 61 59 58 57 57 56 55 55 54 53 52 51 51 50 49 49 48
51 51 51 51 51 51 51 51 51 51 51 51 51 51 51 51 51 51 51 51 52 52 52 53 53 54 55 55 56 56 57 57 58 58 59 59 60 60 61 62 63 63 64 65 65 65 65 66 65 65 65 65 65 65 65 65 65 66 67 67 67 67 67 66 66 65 63 62 61 59 58 57 56 55 55 55 54 54 53 52 51 50 50 49 48 48
52 51 51 51 51 51 51 51 52 52 52 52 52 52 51 51 51 52 52 52 52 53 53 54 54 55 55 56 57 57 58 59 59 60 60 60 61 61 62 63 63 64 65 66 66 66 66 66 66 66 65 66 66 66 66 66 66 67 68 68 68 68 67 66 65 63 62 61 59 58 56 55 55 54 54 54 54 53 53 52 51 50 49 49 48 47
52 52 52 52 52 52 52 52 52 52 52 52 52 52 52 52 52 52 53 53 53 54 54 55 55 56 57 57 58 58 59 60 60 61 61 62 62 62 63 64 64 65 66 66 67 67 67 67 66 66 66 66 66 67 67 67 68 68 68 68 68 68 67 66 64 62 61 59 58 56 55 54 54 53 53 54 54 53 53 52 51 50 49 48 47 47
52 52 52 52 52 52 53 53 53 53 53 53 53 53 53 53 53 53 53 54 54 55 55 56 56 57 58 58 59 59 60 61 61 62 63 63 63 64 64 65 65 66 67 67 68 68 68 67 67 66 66 66 66 67 68 68 68 69 69 68 68 67 66 65 63 61 59 58 56 55 54 53 52 52 53 53 53 53 53 52 51 50 48 48 47 47
52 52 52 52 53 53 53 53 53 53 54 54 54 54 53 53 53 53 54 54 55 55 56 57 57 58 59 59 60 60 61 62 62 63 63 64 64 65 65 66 67 67 68 68 68 68 68 68 68 67 67 66 67 67 69 69 69 69 69 68 67 66 65 64 62 60 58 56 55 54 53 52 52 52 52 52 53 53 53 52 51 50 48 47 47 46
53 53 53 53 53 53 54 54 54 54 54 54 54 54 54 54 54 54 55 55 55 56 57 57 58 59 59 60 61 61 62 62 63 64 64 65 65 66 67 67 68 68 69 69 69 69 69 69 69 69 68 67 67 68 69 69 70 69 69 68 66 65 63 62 60 58 57 55 54 53 52 51 51 51 51 52 52 52 52 52 51 50 48 47 47 46
Wind_Direction
295 295 296 296 297 297 298 298 298 299 299 300 300 300 301 302 302 302 303 303 303 303 303 304 304 304 304 304 304 304 304 304 304 304 304 304 304 304 305 305 305 305 305 305 305 305 305 305 305 305 305 305 305 306 306 306 306 307 307 307 307 308 308 307 306 305 304 303 301 300 299 298 298 298 297 297 297 296 296 295 294 293 293 292 292 291
295 295 296 296 297 297 297 298 298 299 299 299 300 300 301 301 302 302 302 303 303 303 303 303 303 303 303 303 303 303 303 303 303 303 303 304 304 304 304 305 305 305 305 305 305 305 305 304 304 304 305 305 305 305 305 306 306 306 306 307 307 307 307 306 305 304 303 302 301 300 299 298 297 297 296 296 296 295 295 294 293 292 291 290 289 289
295 295 296 296 296 297 297 297 298 298 299 299 300 300 301 301 302 302 302 302 302 302 302 303 303 303 303 303 303 303 303 303 303 303 303 303 304 304 304 304 304 304 304 304 304 304 304 304 304 304 304 304 305 305 305 305 305 306 306 306 306 306 306 305 304 303 302 301 300 299 298 297 296 296 295 295 294 294 293 293 292 290 289 288 287 286
295 295 295 296 296 296 297 297 298 298 299 299 300 300 301 301 301 301 302 302 302 302 302 302 302 302 302 302 302 303 303 303 303 303 303 303 303 303 304 304 304 304 304 304 304 303 303 303 303 304 304 304 304 304 305 305 305 305 305 305 305 305 305 304 303 302 301 300 299 298 297 296 295 295 294 294 293 293 292 291 290 289 288 287 285 284
294 295 295 296 296 296 297 297 298 298 298 299 299 300 300 301 301 301 301 301 301 302 302 302 302 302 302 302 302 302 302 302 302 302 302 303 303 303 303 303 303 303 303 303 303 303 303 303 303 303 303 304 304 304 304 304 304 304 305 305 304 304 304 303 302 301 300 299 298 297 297 296 295 294 293 292 292 291 290 290 289 288 287 285 284 283
294 295 295 295 296 296 297 297 298 298 298 299 299 300 300 300 300 301 301 301 301 301 301 302 302 302 302 302 302 302 302 302 302 302 302 302 302 303 303 303 303 303 302 302 302 302 302 302 302 303 303 303 303 303 304 304 304 304 304 304 304 303 303 302 301 300 299 299 298 297 296 295 294 293 292 292 291 290 289 288 287 287 285 284 283 282
294 294 295 295 296 296 297 297 297 298 298 299 299 299 300 300 300 300 300 301 301 301 301 301 301 302 302 302 302 302 302 302 302 302 302 302 302 302 302 302 302 302 302 302 302 302 302 302 302 302 303 303 303 303 303 303 303 303 303 303 303 302 302 301 300 299 298 298 297 296 295 294 294 293 292 291 290 290 289 288 287 286 285 284 283 282
294 294 295 295 296 296 297 297 297 298 298 299 299 299 300 300 300 300 300 300 301 301 301 301 301 301 301 301 301 301 301 301 301 302 302 302 302 302 302 302 302 302 302 302 302 302 302 302 302 302 302 303 303 303 303 303 303 303 302 302 302 301 300 300 299 298 298 297 296 296 295 294 294 293 292 291 290 290 289 288 287 286 285 284 283 281
294 294 295 295 296 296 297 297 297 298 298 298 299 299 299 300 300 300 300 300 301 301 301 301 301 301 301 301 301 301 301 301 301 302 302 302 302 302 302 302 302 302 301 301 301 301 302 302 302 302 302 302 302 302 302 302 302 302 301 301 300 300 299 299 298 298 297 297 296 295 295 294 294 293 292 292 291 290 289 288 287 286 285 284 283 282
294 294 295 295 295 296 296 297 297 298 298 298 298 299 299 299 300 300 300 300 300 301 301 301 301 301 301 301 301 301 301 301 301 301 302 302 302 302 302 302 302 301 301 301 301 301 301 302 302 302 302 302 302 302 302 301 301 301 300 300 299 299 298 298 297 297 297 296 296 296 295 294 294 293 293 292 291 290 290 289 288 287 286 285 284 283
294 294 295 295 295 296 296 297 297 297 298 298 298 298 299 299 299 300 300 300 300 301 301 301 301 301 301 301 301 301 301 301 301 301 301 301 302 302 302 301 301 301 301 301 301 301 301 301 302 302 302 302 301 301 301 301 300 300 300 299 299 298 298 297 297 297 297 296 296 296 295 295 294 294 293 292 292 291 290 290 289 288 287 286 285 284
294 294 294 295 295 296 296 296 297 297 297 298 298 298 299 299 299 300 300 300 300 301 301 301 301 301 301 301 301 301 301 301 301 301 301 302 302 301 301 301 301 301 301 301 301 301 301 301 301 301 301 301 301 301 300 300 300 300 299 299 298 298 298 297 297 297 297 297 296 296 295 295 295 294 294 293 292 292 291 290 289 288 287 286 286 285
293 294 294 294 295 295 296 296 297 297 297 297 298 298 299 299 299 300 300 300 300 301 301 301 301 301 301 301 301 301 302 302 302 302 302 302 302 301 301 301 301 300 300 300 300 300 301 301 301 301 301 301 301 300 300 300 300 299 299 299 298 298 298 298 298 298 297 297 297 296 296 295 295 294 294 293 293 292 291 290 290 289 288 287 287 286
293 293 294 294 295 295 296 296 296 297 297 297 298 298 299 299 299 300 300 300 300 301 301 301 301 301 301 302 302 302 302 302 302 302 302 302 301 301 301 301 301 300 300 300 300 300 301 301 301 301 301 301 301 300 300 300 300 299 299 299 299 299 299 298 298 298 298 297 297 296 296 296 295 295 294 293 293 292 291 291 290 289 289 288 287 287
293 293 294 294 295 295 295 295 296 296 297 297 298 298 299 299 299 300 300 300 300 301 301 301 301 302 302 302 302 302 302 302 302 302 302 302 301 301 301 301 300 300 300 300 300 300 301 301 301 301 301 301 301 300 300 300 300 300 300 299 299 299 299 299 299 298 298 298 297 297 296 296 295 295 294 294 293 292 292 291 291 290 289 289 288 287
293 293 293 294 294 294 295 295 296 296 297 297 298 298 299 299 299 300 300 300 301 301 302 302 302 302 303 303 303 303 303 302 302 302 302 302 301 301 301 301 300 300 300 300 300 301 301 301 301 301 301 301 301 300 300 300 300 300 300 300 300 300 299 299 299 298 298 298 297 297 296 296 296 295 295 294 294 293 292 292 291 291 290 290 289 288
292 293 293 293 294 294 295 295 296 296 297 297 298 298 299 299 299 300 300 301 301 302 302 303 303 303 303 304 303 303 303 303 302 302 302 302 302 301 301 301 300 300 300 300 300 301 301 301 301 301 301 301 301 301 301 301 300 301 300 300 300 300 300 299 299 298 298 298 298 297 297 297 296 296 295 295 294 294 293 293 292 292 291 290 290 289
292 292 293 293 293 294 295 295 296 296 297 297 298 298 299 299 300 300 301 302 302 303 303 304 304 304 304 304 304 304 304 303 303 302 302 302 302 301 301 301 300 300 300 301 301 301 301 301 301 301 301 301 301 301 301 301 301 301 301 301 300 300 300 299 299 299 299 298 298 298 298 297 297 297 296 296 295 295 294 293 293 292 292 291 290 290
292 292 292 293 294 294 295 295 296 296 297 297 298 298 299 300 300 301 302 302 303 303 304 304 304 304 304 304 304 304 304 304 303 303 303 302 302 302 301 301 301 301 301 301 301 301 302 302 302 302 302 302 302 302 302 302 302 301 301 301 301 300 300 300 300 299 299 299 299 299 298 298 298 297 297 296 296 295 295 294 294 293 292 292 291 290
291 292 292 293 294 294 295 295 296 296 297 297 298 299 299 300 301 302 302 303 303 303 304 304 304 304 304 305 305 305 305 304 304 303 303 303 303 302 302 302 302 302 302 302 302 302 302 302 303 303 303 302 302 302 302 302 302 302 302 302 301 301 301 300 300 300 300 300 299 299 299 298 298 298 297 297 296 296 295 295 294 293 293 292 291 291
291 292 292 293 294 294 295 295 296 296 297 298 298 299 300 301 301 302 302 303 303 303 304 304 304 304 305 305 305 305 305 305 305 304 304 304 304 303 303 303 303 303 303 303 303 303 303 303 303 303 303 303 303 303 303 303 303 303 302 302 302 301 301 301 301 300 300 300 299 299 299 299 298 298 297 297 297 296 296 295 294 294 293 292 292 291
291 292 293 293 294 294 295 295 296 296 297 298 299 299 300 300 301 301 302 302 303 303 303 304 304 304 305 305 305 305 306 305 305 305 305 305 305 305 305 305 304 304 304 304 305 305 304 305 304 304 304 304 304 304 304 303 303 303 303 302 302 302 301 301 301 300 300 300 300 299 299 299 298 298 298 297 297 296 296 295 295 294 294 293 292 292
291 292 293 293 294 294 295 295 296 297 297 298 298 299 299 300 300 301 301 302 302 303 303 303 304 304 304 305 305 305 306 306 306 306 306 306 306 306 306 306 306 306 306 306 306 306 305 305 305 305 305 304 304 304 304 304 304 303 303 302 302 302 301 301 301 300 300 300 300 300 299 299 299 298 298 298 297 297 296 296 295 295 294 294 293 292
291 292 292 293 294 294 295 295 296 297 297 297 298 298 299 299 300 300 301 301 302 302 303 303 304 304 304 305 305 306 306 306 307 307 307 307 307 307 307 307 307 306 306 306 306 306 306 306 305 305 305 305 305 304 304 304 304 303 303 302 302 301 301 301 301 301 300 300 300 300 299 299 299 299 298 298 298 297 297 296 296 295 295 294 294 293
291 292 292 293 293 294 295 295 296 296 297 297 297 298 298 299 299 300 300 301 301 302 303 303 304 304 305 305 306 306 306 307 307 307 307 307 307 307 307 307 307 307 307 306 306 306 306 306 306 305 305 305 304 304 304 304 303 303 302 302 302 301 301 301 301 300 300 300 300 300 300 299 299 299 298 298 298 297 297 296 296 296 295 295 295 294
291 292 292 293 293 294 294 295 295 296 296 296 297 297 298 298 299 299 300 301 301 302 303 303 304 304 305 305 306 306 306 307 307 307 307 307 307 307 307 307 307 307 307 306 306 306 306 306 306 305 305 305 304 304 304 303 303 302 302 302 301 301 301 301 301 301 300 300 300 300 300 299 299 299 299 298 298 297 297 297 296 296 296 296 296 296
291 292 292 293 293 294 294 294 295 295 295 296 296 296 297 298 298 299 300 301 301 302 303 303 304 305 305 306 306 306 307 307 307 307 307 307 307 307 308 307 307 307 307 307 306 306 306 306 306 305 305 304 304 304 303 303 303 302 302 302 301 301 301 301 301 301 300 300 300 300 300 299 299 299 299 298 298 298 297 297 297 297 297 297 297 297
291 292 292 293 293 293 293 294 294 294 295 295 295 296 297 298 298 299 300 301 301 302 303 303 304 305 305 306 306 306 307 307 308 308 308 308 308 308 308 308 308 308 308 307 307 306 306 306 306 305 305 304 304 304 303 303 303 302 302 302 302 301 301 301 301 301 300 300 300 300 300 299 299 299 299 298 298 298 298 298 297 297 297 297 298 297
291 291 292 292 292 292 293 293 293 293 294 294 295 296 296 297 298 299 299 300 301 302 302 303 304 305 305 305 306 306 307 307 308 308 308 308 308 309 309 309 309 308 308 308 307 307 306 306 306 306 305 305 304 304 303 303 303 302 302 302 302 301 301 301 301 301 300 300 300 300 300 300 299 299 299 299 298 298 298 298 298 298 298 298 298 298
290 291 291 291 291 291 291 292 292 293 293 294 295 295 296 297 297 298 299 300 301 302 302 303 304 304 305 305 306 306 307 307 308 308 309 309 309 309 310 310 309 309 309 309 308 308 307 307 306 306 306 305 305 304 304 304 303 303 303 302 302 302 301 301 301 301 301 301 300 300 300 300 300 299 299 299 299 299 298 299 298 299 299 299 299 299
290 290 290 290 290 290 291 291 291 292 293 293 294 295 295 296 297 297 298 299 300 301 302 303 303 304 305 305 306 306 307 308 308 309 309 309 310 310 310 311 310 310 310 310 309 309 308 308 307 307 306 306 305 305 304 304 304 303 303 303 302 302 302 302 301 301 301 301 301 301 300 300 300 300 299 299 299 299 299 299 299 299 299 299 299 299
289 289 289 289 289 289 290 290 291 291 292 293 293 294 295 295 296 297 298 299 300 301 302 302 303 304 304 305 306 306 307 308 309 309 310 310 310 310 311 311 311 311 311 310 310 310 309 309 308 308 307 306 306 305 305 304 304 304 303 303 303 302 302 302 302 302 302 301 301 301 301 300 300 300 300 299 299 299 299 299 299 299 299 299 299 299
288 288 288 288 288 288 289 289 290 291 291 292 293 293 294 295 296 297 298 299 300 300 301 302 303 304 304 305 306 306 307 308 309 309 310 310 310 311 311 311 312 312 311 311 311 310 310 309 309 308 308 307 306 306 305 305 304 304 304 303 303 303 303 303 302 302 302 302 301 301 301 301 300 300 300 299 299 299 299 299 299 299 299 299 299 299
288 288 287 287 287 288 288 289 289 290 291 292 292 293 294 295 295 296 297 298 299 300 301 302 303 304 305 305 306 307 307 308 309 309 310 310 310 311 311 312 312 312 312 311 311 311 310 310 309 309 308 307 306 306 305 305 305 304 304 304 304 303 303 303 303 302 302 302 302 301 301 301 300 300 300 300 299 299 299 299 299 299 299 299 299 298
287 287 287 287 287 287 287 288 289 290 290 291 292 293 294 295 295 296 297 298 299 300 300 301 302 303 304 305 306 306 307 308 308 309 309 310 310 310 311 311 311 312 312 311 311 311 311 310 309 309 308 308 307 306 306 305 305 305 304 304 304 304 303 303 303 303 302 302 302 302 301 301 301 301 300 300 300 300 300 300 300 299 299 299 299 298
287 286 286 286 286 286 287 287 288 289 290 291 292 293 294 294 295 296 297 298 298 299 300 301 302 303 304 305 305 306 307 307 308 308 309 309 310 310 310 311 311 311 311 311 311 311 311 310 310 309 308 308 307 306 306 305 305 305 304 304 304 304 303 303 303 303 303 303 302 302 302 302 301 301 301 301 301 301 300 300 300 300 300 299 299 298
286 286 286 285 286 286 287 287 288 289 290 291 292 293 294 294 295 296 296 297 298 299 300 300 301 302 303 304 305 306 306 307 308 308 309 309 309 310 310 310 311 311 311 311 311 311 310 310 310 309 308 308 307 307 306 305 305 304 304 304 304 303 303 303 303 303 303 303 303 303 302 302 302 302 301 301 301 301 301 301 300 300 300 300 299 299
286 285 285 285 285 286 286 287 288 289 290 291 292 292 293 294 295 295 296 297 298 299 299 300 301 302 303 304 305 305 306 307 307 308 309 309 309 309 309 310 310 310 310 310 310 310 310 310 309 309 308 308 307 306 306 305 305 305 304 304 304 303 303 303 303 303 303 303 303 303 303 302 302 302 302 301 301 301 301 301 300 300 300 300 300 299
285 285 285 285 285 286 286 287 288 289 290 291 291 292 293 293 294 295 296 297 297 298 299 300 301 302 303 304 305 305 306 307 307 308 308 308 309 309 309 309 309 309 309 310 310 310 310 309 309 309 308 308 307 306 306 305 305 305 305 304 304 303 303 304 304 304 304 304 303 303 303 302 302 302 301 301 301 300 300 300 300 300 300 300 299 299
285 285 285 285 285 286 286 287 288 289 289 290 291 291 292 293 293 294 295 296 297 298 299 300 301 301 302 303 304 305 306 306 307 307 308 308 308 308 308 308 308 309 309 309 309 309 309 309 309 309 308 308 307 307 306 306 306 305 305 305 305 304 304 304 305 304 304 304 304 303 303 302 302 302 301 301 300 300 300 299 299 299 299 299 299 299
285 285 285 285 285 285 286 287 287 288 289 289 290 291 291 292 293 294 295 296 296 297 298 299 300 301 302 302 303 304 305 306 306 307 307 307 307 308 308 308 308 308 309 309 309 309 309 309 309 309 308 308 307 307 306 306 306 306 306 306 306 305 305 305 305 305 305 305 304 304 303 303 302 301 301 300 300 299 299 299 299 299 299 299 298 298
284 284 284 284 285 285 286 286 287 288 288 289 289 290 291 291 292 293 294 295 296 297 298 299 300 300 301 302 303 304 304 305 306 306 307 307 307 307 308 308 308 308 309 309 309 309 309 309 309 309 308 308 307 307 307 307 307 306 306 306 306 306 306 306 306 306 306 305 304 304 303 303 302 302 301 300 300 299 299 299 298 298 298 298 298 298
284 284 284 284 284 285 285 286 286 287 288 288 289 289 290 291 292 293 294 295 296 296 297 298 299 300 301 302 303 303 304 305 305 306 306 307 307 307 308 308 308 308 309 309 309 309 309 309 309 309 308 308 308 307 307 307 307 307 307 307 307 307 307 307 307 306 306 305 305 304 304 303 302 302 301 300 300 299 299 298 298 298 298 298 298 297
283 283 283 283 284 284 285 285 286 287 287 288 288 289 290 291 292 293 293 294 295 296 297 298 299 299 300 301 302 303 304 305 305 306 306 307 307 308 308 308 308 309 309 309 309 309 309 309 309 308 308 308 308 308 308 308 308 308 308 308 308 308 308 308 308 307 306 306 305 304 304 303 302 302 301 300 300 299 299 298 298 298 298 298 298 297
282 282 282 283 283 284 284 285 285 286 287 287 288 289 290 291 292 292 293 294 295 296 297 298 298 299 300 301 302 303 304 305 305 306 307 307 307 308 308 308 308 309 309 309 309 309 309 309 309 309 308 308 308 308 308 308 308 308 309 309 309 309 308 308 308 307 307 306 305 305 304 303 303 302 301 300 300 299 299 299 299 298 298 298 297 297
282 282 282 282 283 283 284 284 285 286 286 287 288 289 290 291 292 293 293 294 295 296 297 297 298 299 300 301 302 303 304 304 305 306 306 307 307 308 308 308 308 308 309 309 309 309 309 309 309 309 309 308 308 308 308 309 309 309 309 309 309 309 309 308 308 307 307 306 305 305 304 303 302 302 301 300 300 299 299 299 298 298 298 298 297 297
281 282 282 282 282 283 284 284 285 286 287 287 288 289 290 291 292 293 294 294 295 296 297 298 298 299 300 301 302 303 304 304 305 306 306 307 307 307 308 308 308 308 309 309 309 309 309 309 309 308 309 309 309 309 309 309 309 310 310 310 310 310 309 309 308 307 307 306 305 304 304 303 302 301 301 300 299 299 299 298 298 298 298 297 297 297
282 282 282 282 283 283 284 284 285 286 287 288 289 289 290 291 292 293 294 295 295 296 297 298 299 299 300 301 302 303 303 304 305 306 306 307 307 307 307 308 308 308 308 309 309 309 309 308 308 308 309 309 309 309 309 310 310 310 310 310 310 310 309 309 308 307 306 305 305 304 303 303 302 301 301 300 299 299 298 298 298 298 298 297 297 296
282 282 282 283 283 283 284 285 285 286 287 288 289 290 291 291 292 293 294 295 296 296 297 298 299 299 300 301 302 303 303 304 305 305 306 306 307 307 307 308 308 308 308 309 309 308 308 308 308 308 308 309 309 309 310 310 310 311 311 310 310 310 309 308 307 306 306 305 304 304 303 302 302 301 300 300 299 299 298 298 298 298 298 297 297 296
282 282 282 283 283 283 284 285 285 286 287 288 289 290 291 292 292 293 294 295 296 296 297 298 298 299 300 301 302 302 303 304 305 305 306 306 307 307 307 308 308 308 308 309 308 308 308 308 308 308 308 309 309 310 310 310 310 311 311 310 310 309 309 308 307 306 305 304 304 303 303 302 301 301 300 299 299 298 298 298 298 298 298 297 297 296
282 282 282 283 283 283 284 285 285 286 287 288 289 290 291 292 292 293 294 295 295 296 297 297 298 299 299 300 301 302 303 303 304 305 305 306 306 307 307 308 308 308 309 309 309 308 308 308 308 308 308 309 309 310 310 310 311 311 311 310 310 309 308 307 306 305 305 304 303 303 302 302 301 300 300 299 299 299 298 298 298 298 298 297 297 296
Height
10578 10576 10575 10573 10571 10569 10566 10565 10564 10561 10559 10557 10555 10554 10552 10550 10549 10547 10545 10543 10541 10538 10536 10535 10533 10530 10528 10526 10524 10522 10520 10518 10515 10513 10510 10508 10506 10504 10502 10500 10498 10496 10495 10492 10490 10488 10486 10485 10483 10481 10479 10477 10475 10473 10472 10470 10469 10468 10466 10466 10465 10463 10462 10461 10460 10459 10458 10458 10456 10456 10455 10455 10454 10453 10452 10451 10451 10450 10450 10449 10448 10448 10447 10446 10446 10446
10573 10571 10570 10568 10566 10564 10561 10560 10558 10556 10554 10552 10550 10548 10547 10545 10543 10541 10540 10538 10535 10533 10531 10529 10527 10525 10523 10521 10519 10516 10515 10512 10510 10508 10505 10503 10501 10499 10497 10495 10493 10491 10490 10488 10485 10483 10481 10480 10478 10476 10475 10473 10471 10470 10468 10466 10465 10464 10463 10461 10461 10460 10459 10458 10456 10456 10455 10454 10453 10453 10452 10451 10451 10450 10449 10448 10448 10447 10446 10446 10445 10445 10444 10444 10443 10443
10567 10565 10564 10562 10561 10559 10556 10554 10553 10551 10550 10547 10545 10543 10542 10540 10538 10536 10534 10532 10530 10528 10526 10524 10521 10520 10518 10515 10513 10511 10509 10507 10505 10503 10500 10498 10496 10494 10492 10490 10488 10486 10485 10483 10481 10479 10477 10475 10473 10471 10470 10468 10466 10465 10464 10462 10461 10460 10459 10458 10457 10456 10455 10454 10453 10452 10451 10451 10450 10450 10449 10448 10448 10447 10446 10446 10445 10444 10443 10443 10442 10442 10441 10441 10441 10440
10561 10560 10558 10556 10555 10553 10551 10549 10547 10545 10544 10542 10540 10538 10536 10535 10533 10531 10529 10527 10525 10522 10520 10518 10516 10514 10512 10510 10508 10506 10504 10501 10500 10497 10495 10493 10491 10490 10488 10486 10484 10482 10480 10478 10476 10475 10473 10471 10469 10468 10466 10464 10463 10461 10460 10458 10457 10456 10455 10454 10453 10453 10451 10451 10450 10449 10448 10447 10447 10446 10446 10445 10445 10444 10443 10443 10442 10441 10440 10440 10439 10439 10438 10438 10438 10437
10555 10554 10552 10551 10549 10547 10545 10544 10542 10540 10538 10536 10535 10533 10531 10530 10528 10525 10523 10521 10520 10517 10515 10513 10511 10509 10507 10505 10503 10500 10498 10496 10494 10492 10490 10488 10486 10485 10483 10481 10479 10477 10475 10473 10471 10470 10468 10466 10465 10463 10461 10460 10459 10457 10456 10455 10453 10452 10451 10450 10450 10449 10448 10447 10446 10445 10445 10444 10443 10443 10443 10442 10441 10441 10440 10440 10439 10438 10438 10436 10436 10436 10435 10435 10435 10434
10549 10548 10546 10545 10543 10541 10540 10538 10536 10535 10533 10531 10529 10528 10526 10524 10522 10520 10518 10516 10514 10511 10510 10508 10506 10503 10501 10500 10497 10495 10493 10491 10489 10487 10485 10483 10481 10480 10478 10476 10475 10473 10471 10469 10467 10466 10464 10463 10461 10459 10458 10456 10455 10453 10452 10451 10450 10448 10448 10446 10446 10445 10444 10443 10443 10441 10441 10440 10440 10440 10439 10438 10438 10437 10436 10436 10435 10435 10434 10433 10433 10432 10432 10431 10431 10431
10543 10542 10541 10539 10537 10536 10534 10532 10531 10529 10527 10525 10523 10521 10520 10518 10516 10515 10512 10510 10508 10506 10504 10502 10500 10498 10496 10494 10492 10490 10488 10486 10483 10481 10480 10478 10476 10475 10473 10471 10470 10468 10466 10465 10463 10461 10460 10458 10456 10455 10454 10452 10451 10450 10448 10447 10446 10445 10444 10443 10442 10441 10441 10440 10439 10438 10438 10437 10436 10436 10435 10435 10434 10433 10433 10432 10431 10431 10431 10430 10430 10429 10428 10428 10428 10427
10537 10536 10535 10533 10531 10530 10528 10526 10525 10524 10522 10520 10518 10516 10514 10512 10511 10509 10507 10505 10503 10501 10499 10496 10495 10493 10491 10489 10487 10485 10483 10480 10478 10476 10475 10473 10471 10470 10468 10466 10465 10463 10461 10460 10458 10457 10455 10454 10453 10451 10450 10448 10447 10446 10445 10443 10442 10441 10440 10440 10439 10438 10437 10436 10435 10435 10434 10433 10433 10432 10431 10431 10430 10430 10429 10428 10428 10427 10426 10426 10425 10425 10425 10424 10423 10423
10532 10530 10528 10527 10526 10525 10522 10520 10519 10518 10517 10515 10513 10510 10508 10506 10504 10503 10501 10499 10497 10496 10494 10491 10489 10487 10485 10484 10482 10480 10477 10475 10473 10471 10470 10468 10466 10465 10463 10461 10460 10458 10456 10455 10454 10453 10451 10450 10448 10447 10446 10445 10443 10442 10441 10440 10438 10438 10437 10436 10435 10435 10433 10433 10432 10431 10430 10430 10429 10428 10428 10427 10426 10425 10425 10424 10423 10423 10422 10421 10421 10421 10420 10420 10420 10419
10526 10525 10523 10521 10520 10519 10518 10515 10513 10512 10511 10510 10507 10505 10503 10501 10499 10496 10495 10493 10491 10490 10489 10486 10484 10481 10480 10478 10476 10475 10473 10470 10468 10467 10465 10463 10461 10460 10458 10456 10455 10453 10452 10451 10450 10448 10447 10446 10445 10443 10442 10441 10440 10438 10437 10436 10435 10434 10433 10433 10431 10431 10430 10429 10428 10427 10426 10426 10425 10424 10423 10423 10422 10421 10420 10420 10419 10418 10418 10417 10416 10416 10416 10415 10415 10415
10521 10520 10518 10516 10515 10513 10512 10510 10508 10506 10505 10503 10501 10500 10498 10497 10495 10492 10489 10487 10485 10485 10483 10481 10479 10476 10475 10472 10471 10470 10468 10466 10463 10462 10460 10459 10457 10455 10454 10452 10451 10449 10448 10447 10446 10445 10443 10442 10441 10440 10438 10437 10436 10435 10433 10433 10431 10430 10430 10429 10428 10427 10426 10425 10424 10423 10423 10421 10421 10420 10419 10418 10418 10416 10416 10415 10415 10414 10413 10413 10412 10411 10411 10411 10410 10410
10515 10514 10512 10511 10509 10508 10506 10505 10503 10501 10500 10498 10496 10494 10492 10491 10490 10488 10485 10482 10480 10479 10477 10475 10473 10471 10470 10468 10465 10464 10463 10461 10459 10457 10456 10454 10453 10451 10450 10448 10446 10445 10444 10443 10442 10441 10440 10438 10437 10436 10435 10433 10432 10431 10430 10429 10428 10426 10426 10425 10424 10423 10422 10421 10420 10420 10418 10418 10416 10416 10415 10414 10413 10412 10411 10411 10410 10410 10409 10408 10408 10407 10406 10406 10406 10405
10510 10509 10507 10505 10503 10502 10501 10500 10498 10496 10495 10493 10491 10489 10487 10485 10484 10483 10480 10477 10475 10474 10473 10470 10468 10466 10465 10463 10461 10459 10457 10456 10454 10453 10451 10450 10448 10447 10445 10443 10442 10441 10440 10439 10438 10437 10436 10435 10433 10433 10431 10430 10428 10427 10426 10425 10424 10423 10422 10421 10420 10419 10418 10417 10416 10415 10414 10413 10412 10411 10410 10410 10409 10408 10407 10406 10406 10405 10405 10404 10403 10402 10402 10401 10401 10400
10505 10503 10501 10500 10498 10497 10496 10495 10493 10491 10489 10488 10486 10485 10483 10481 10479 10477 10475 10473 10470 10469 10468 10466 10463 10461 10460 10458 10456 10455 10453 10451 10449 10448 10446 10445 10444 10443 10441 10440 10438 10437 10436 10435 10434 10433 10432 10431 10430 10428 10427 10426 10425 10423 10422 10421 10420 10419 10418 10417 10416 10415 10414 10413 10411 10411 10410 10409 10408 10407 10406 10405 10405 10404 10403 10402 10401 10401 10400 10400 10398 10398 10397 10396 10396 10396
10500 10498 10496 10495 10493 10492 10491 10490 10488 10486 10484 10483 10481 10480 10478 10476 10475 10473 10471 10468 10466 10464 10463 10460 10458 10457 10455 10454 10452 10450 10448 10446 10445 10443 10442 10441 10440 10438 10437 10435 10434 10433 10432 10431 10430 10429 10428 10427 10426 10425 10423 10422 10421 10419 10418 10417 10416 10415 10414 10413 10411 10411 10410 10408 10408 10406 10406 10405 10404 10403 10402 10401 10400 10400 10399 10398 10397 10396 10396 10395 10394 10393 10393 10392 10391 10391
10495 10493 10491 10490 10488 10487 10486 10485 10483 10481 10480 10478 10476 10475 10473 10471 10470 10468 10466 10463 10461 10460 10458 10456 10453 10451 10450 10450 10448 10446 10444 10441 10440 10439 10438 10436 10435 10435 10433 10431 10430 10428 10428 10427 10426 10425 10424 10423 10421 10420 10419 10418 10416 10415 10414 10413 10411 10411 10410 10408 10408 10406 10405 10405 10403 10402 10401 10400 10400 10398 10398 10397 10396 10395 10394 10393 10393 10391 10391 10390 10390 10389 10388 10387 10386 10386
10490 10488 10486 10485 10483 10482 10481 10480 10478 10476 10475 10473 10471 10470 10468 10466 10465 10463 10461 10459 10457 10455 10453 10451 10449 10447 10445 10444 10443 10443 10441 10438 10436 10435 10433 10432 10431 10430 10429 10427 10426 10424 10423 10423 10422 10421 10420 10419 10418 10416 10415 10414 10412 10411 10410 10409 10408 10406 10406 10405 10403 10403 10401 10400 10399 10398 10397 10396 10395 10394 10393 10392 10391 10390 10390 10389 10388 10387 10386 10385 10385 10384 10383 10383 10382 10381
10485 10483 10481 10480 10478 10477 10476 10475 10473 10471 10470 10468 10466 10465 10463 10462 10460 10458 10456 10455 10453 10451 10449 10447 10445 10443 10441 10440 10438 10438 10437 10435 10432 10430 10430 10428 10427 10426 10425 10423 10422 10420 10420 10418 10418 10416 10416 10415 10413 10412 10411 10410 10408 10407 10406 10405 10404 10403 10401 10401 10400 10398 10397 10396 10395 10394 10393 10391 10391 10390 10389 10388 10386 10386 10385 10384 10383 10382 10381 10380 10380 10379 10378 10378 10376 10376
10479 10478 10476 10475 10473 10472 10471 10470 10468 10467 10465 10464 10462 10461 10459 10457 10456 10454 10452 10450 10449 10447 10445 10443 10441 10439 10438 10436 10435 10434 10433 10431 10428 10426 10425 10424 10423 10421 10421 10420 10418 10416 10415 10415 10414 10413 10411 10410 10409 10408 10407 10405 10404 10403 10402 10401 10400 10398 10398 10396 10395 10394 10393 10391 10391 10390 10388 10387 10386 10385 10384 10383 10382 10381 10380 10379 10378 10377 10376 10375 10375 10374 10373 10372 10371 10371
10474 10473 10472 10471 10469 10467 10466 10465 10464 10463 10461 10459 10458 10456 10455 10453 10451 10450 10448 10446 10445 10443 10441 10440 10438 10435 10434 10432 10431 10430 10430 10428 10425 10423 10422 10420 10419 10418 10417 10416 10414 10413 10411 10411 10410 10409 10408 10406 10405 10404 10403 10401 10400 10399 10398 10396 10396 10395 10393 10392 10391 10390 10389 10388 10386 10385 10384 10383 10382 10381 10380 10379 10378 10376 10375 10375 10373 10372 10371 10370 10370 10368 10368 10367 10366 10365
10470 10468 10467 10466 10465 10463 10461 10460 10459 10458 10456 10455 10453 10451 10450 10448 10447 10445 10444 10443 10441 10439 10438 10436 10434 10432 10431 10429 10428 10426 10426 10424 10422 10420 10418 10417 10416 10415 10413 10412 10410 10408 10408 10406 10406 10405 10404 10402 10401 10400 10399 10398 10396 10395 10394 10393 10391 10390 10390 10388 10387 10386 10385 10383 10382 10381 10380 10379 10378 10376 10375 10374 10373 10372 10371 10370 10368 10367 10366 10365 10364 10363 10362 10361 10360 10359
10465 10463 10462 10461 10460 10459 10457 10456 10455 10453 10452 10451 10449 10447 10446 10445 10443 10441 10440 10439 10437 10436 10434 10432 10431 10429 10428 10426 10425 10423 10422 10421 10419 10416 10415 10413 10412 10411 10410 10408 10406 10405 10403 10403 10402 10401 10400 10398 10397 10396 10395 10393 10392 10391 10390 10389 10388 10386 10385 10384 10383 10381 10380 10379 10378 10377 10376 10375 10373 10372 10371 10370 10368 10367 10366 10365 10363 10362 10361 10360 10358 10357 10356 10355 10354 10353
10461 10460 10458 10457 10456 10454 10453 10451 10450 10449 10448 10446 10445 10443 10442 10441 10440 10438 10436 10435 10434 10432 10430 10429 10428 10426 10425 10423 10421 10420 10419 10417 10416 10414 10412 10410 10408 10407 10406 10405 10403 10401 10400 10399 10398 10397 10396 10395 10393 10393 10391 10390 10388 10387 10386 10385 10384 10383 10381 10380 10379 10378 10376 10375 10374 10373 10371 10370 10369 10368 10366 10365 10363 10362 10361 10360 10358 10356 10355 10354 10353 10351 10350 10349 10348 10346
10456 10455 10454 10453 10451 10450 10448 10447 10446 10445 10443 10442 10441 10440 10438 10438 10436 10435 10433 10432 10430 10429 10427 10426 10424 10422 10421 10420 10418 10416 10415 10414 10412 10410 10408 10406 10405 10404 10403 10401 10400 10398 10396 10395 10395 10393 10392 10391 10390 10389 10388 10386 10385 10384 10383 10381 10380 10379 10378 10376 10375 10374 10373 10371 10370 10369 10367 10366 10365 10363 10361 10360 10359 10357 10356 10354 10353 10351 10350 10348 10346 10345 10344 10343 10341 10340
10452 10451 10450 10448 10447 10446 10445 10443 10442 10441 10440 10438 10437 10436 10435 10434 10433 10431 10430 10428 10427 10425 10423 10422 10420 10418 10417 10416 10415 10413 10411 10410 10409 10407 10405 10403 10402 10401 10400 10398 10396 10395 10393 10392 10391 10390 10388 10387 10386 10385 10384 10383 10381 10380 10379 10378 10376 10375 10374 10373 10371 10370 10369 10367 10366 10365 10363 10361 10360 10358 10357 10355 10354 10352 10351 10349 10347 10346 10344 10343 10341 10339 10338 10336 10335 10333
10448 10446 10445 10444 10443 10441 10440 10439 10438 10436 10436 10435 10433 10433 10431 10430 10428 10427 10426 10425 10423 10421 10420 10418 10416 10415 10414 10412 10411 10410 10408 10407 10405 10404 10402 10400 10398 10397 10396 10395 10393 10391 10389 10388 10387 10386 10385 10383 10382 10381 10380 10379 10378 10376 10375 10374 10373 10371 10370 10369 10368 10366 10365 10363 10361 10360 10358 10357 10355 10354 10352 10351 10349 10347 10346 10344 10342 10340 10338 10336 10335 10333 10331 10330 10328 10326
10443 10442 10441 10440 10438 10437 10436 10435 10433 10433 10431 10431 10430 10429 10428 10426 10425 10423 10421 10421 10420 10418 10416 10415 10413 10411 10410 10409 10408 10406 10405 10403 10402 10400 10399 10397 10395 10393 10393 10391 10390 10388 10386 10385 10383 10382 10381 10380 10378 10378 10376 10375 10374 10373 10371 10370 10369 10368 10366 10365 10363 10362 10360 10359 10357 10356 10354 10353 10351 10349 10348 10346 10344 10342 10340 10338 10336 10335 10333 10331 10329 10327 10325 10323 10321 10320
10439 10438 10436 10435 10434 10433 10431 10431 10430 10429 10428 10427 10426 10425 10424 10423 10421 10419 10418 10417 10416 10415 10413 10411 10410 10408 10406 10405 10404 10403 10401 10400 10398 10397 10395 10393 10391 10390 10389 10388 10386 10385 10383 10381 10380 10378 10378 10376 10375 10373 10372 10371 10370 10369 10368 10366 10365 10363 10362 10361 10359 10358 10356 10355 10353 10351 10350 10348 10346 10345 10343 10341 10339 10337 10335 10333 10331 10329 10327 10325 10323 10321 10319 10317 10315 10313
10435 10434 10433 10431 10430 10429 10428 10427 10426 10425 10424 10423 10422 10421 10420 10419 10418 10416 10414 10413 10412 10411 10409 10408 10406 10405 10403 10401 10400 10399 10398 10396 10395 10393 10391 10390 10388 10386 10386 10385 10383 10381 10380 10377 10376 10375 10374 10373 10371 10370 10368 10367 10366 10365 10363 10362 10361 10359 10358 10356 10355 10353 10351 10350 10348 10346 10345 10343 10341 10340 10338 10336 10334 10332 10330 10328 10325 10323 10321 10319 10316 10315 10313 10310 10308 10306
10431 10430 10429 10428 10426 10425 10425 10423 10422 10421 10420 10420 10418 10418 10416 10416 10415 10413 10411 10410 10408 10407 10405 10404 10403 10401 10400 10398 10396 10395 10394 10393 10392 10390 10388 10386 10385 10383 10382 10381 10379 10378 10376 10374 10372 10370 10369 10369 10368 10366 10364 10363 10361 10360 10358 10357 10356 10355 10353 10351 10350 10348 10347 10345 10344 10342 10340 10338 10337 10335 10333 10331 10329 10326 10325 10322 10320 10318 10315 10313 10311 10308 10306 10304 10302 10300
10427 10426 10425 10424 10423 10422 10421 10420 10419 10418 10416 10416 10415 10414 10413 10412 10411 10410 10408 10406 10405 10404 10402 10401 10399 10398 10396 10395 10393 10391 10390 10390 10388 10387 10385 10383 10381 10380 10379 10377 10375 10374 10373 10371 10368 10366 10365 10364 10363 10363 10361 10358 10356 10355 10354 10352 10351 10350 10348 10347 10345 10344 10342 10341 10339 10337 10335 10334 10332 10330 10328 10326 10324 10321 10319 10316 10314 10311 10310 10307 10305 10303 10300 10298 10296 10294
10423 10422 10421 10420 10419 10418 10417 10416 10415 10414 10413 10412 10411 10410 10410 10408 10408 10406 10405 10403 10402 10400 10399 10397 10396 10394 10393 10391 10390 10388 10386 10385 10385 10383 10381 10379 10377 10376 10375 10373 10371 10370 10368 10367 10365 10363 10361 10359 10358 10358 10356 10355 10353 10351 10349 10348 10346 10345 10344 10342 10340 10339 10338 10336 10334 10332 10330 10329 10327 10325 10323 10321 10318 10316 10313 10311 10308 10306 10303 10301 10299 10297 10295 10293 10290 10288
10419 10418 10417 10416 10415 10415 10413 10412 10411 10410 10410 10408 10408 10407 10406 10405 10404 10403 10401 10400 10398 10397 10395 10393 10392 10390 10389 10388 10386 10385 10383 10382 10381 10380 10378 10376 10373 10372 10371 10370 10368 10366 10364 10363 10361 10359 10357 10355 10354 10353 10351 10350 10348 10346 10345 10343 10342 10341 10339 10338 10336 10334 10333 10331 10329 10327 10325 10324 10321 10320 10318 10315 10313 10310 10308 10305 10302 10300 10298 10295 10293 10291 10289 10287 10285 10283
10415 10414 10413 10412 10411 10410 10410 10408 10408 10406 10406 10405 10404 10403 10402 10401 10400 10399 10398 10396 10395 10394 10392 10390 10388 10387 10385 10383 10382 10380 10379 10378 10377 10376 10374 10372 10370 10368 10367 10365 10364 10362 10360 10358 10356 10355 10353 10351 10350 10348 10346 10345 10345 10343 10341 10339 10338 10336 10335 10333 10331 10329 10328 10326 10324 10322 10320 10318 10316 10314 10312 10310 10307 10304 10301 10299 10296 10294 10291 10290 10287 10285 10283 10281 10279 10277
10411 10410 10409 10408 10408 10406 10406 10405 10403 10403 10401 10401 10400 10399 10398 10397 10396 10395 10394 10393 10391 10390 10389 10387 10386 10384 10382 10380 10378 10376 10375 10374 10373 10372 10370 10369 10366 10365 10363 10361 10360 10358 10356 10354 10353 10351 10349 10347 10346 10345 10343 10341 10340 10338 10337 10335 10333 10331 10330 10328 10326 10325 10323 10321 10319 10317 10315 10313 10311 10308 10306 10303 10300 10298 10295 10292 10290 10287 10285 10283 10281 10279 10277 10275 10273 10271
10406 10405 10405 10404 10403 10403 10401 10401 10400 10399 10398 10397 10396 10395 10395 10393 10392 10391 10390 10389 10388 10386 10385 10384 10382 10381 10379 10377 10375 10373 10371 10370 10370 10368 10367 10365 10363 10361 10360 10358 10356 10355 10353 10350 10348 10347 10345 10343 10341 10340 10339 10337 10335 10333 10333 10331 10330 10328 10326 10324 10322 10320 10318 10316 10314 10312 10310 10307 10305 10303 10300 10297 10294 10291 10288 10285 10283 10280 10278 10276 10274 10272 10270 10269 10267 10266
10401 10401 10400 10400 10399 10398 10398 10396 10396 10395 10394 10393 10392 10391 10390 10389 10388 10387 10386 10385 10384 10383 10381 10380 10378 10377 10376 10374 10372 10371 10368 10367 10366 10364 10363 10361 10360 10358 10356 10354 10353 10351 10350 10347 10345 10343 10341 10339 10337 10336 10335 10333 10331 10330 10328 10326 10325 10323 10321 10320 10318 10316 10313 10311 10310 10307 10305 10302 10300 10297 10294 10291 10288 10285 10281 10279 10276 10274 10271 10270 10268 10266 10264 10263 10261 10260
10398 10396 10396 10396 10395 10394 10393 10392 10391 10391 10390 10389 10388 10387 10386 10385 10384 10383 10381 10381 10380 10378 10377 10376 10375 10373 10371 10370 10368 10367 10365 10363 10361 10360 10359 10358 10356 10355 10353 10351 10349 10348 10346 10344 10341 10339 10337 10335 10333 10331 10330 10328 10326 10325 10323 10322 10320 10319 10317 10315 10314 10311 10309 10307 10305 10303 10300 10297 10295 10291 10288 10286 10283 10280 10276 10273 10271 10268 10266 10264 10262 10261 10259 10257 10255 10254
10393 10392 10391 10391 10391 10390 10389 10388 10387 10386 10386 10385 10384 10383 10382 10381 10380 10379 10378 10376 10375 10374 10373 10371 10370 10369 10368 10366 10365 10363 10361 10360 10358 10356 10355 10353 10352 10351 10349 10347 10345 10343 10342 10340 10338 10336 10333 10331 10329 10327 10325 10323 10321 10320 10319 10318 10316 10314 10312 10310 10308 10306 10305 10303 10300 10298 10295 10292 10289 10286 10283 10280 10277 10275 10271 10268 10266 10264 10261 10260 10258 10256 10255 10252 10250 10249
10389 10388 10387 10387 10386 10386 10385 10384 10383 10383 10382 10381 10380 10379 10378 10377 10376 10375 10373 10373 10371 10370 10369 10368 10366 10365 10363 10362 10361 10359 10358 10356 10355 10353 10351 10350 10348 10346 10345 10343 10341 10340 10338 10336 10334 10332 10330 10327 10325 10323 10321 10319 10316 10315 10313 10312 10311 10309 10307 10305 10302 10300 10299 10297 10295 10292 10290 10287 10284 10281 10278 10275 10272 10269 10266 10264 10261 10259 10257 10255 10253 10251 10250 10248 10246 10244
10385 10384 10383 10383 10382 10381 10381 10380 10380 10379 10378 10377 10376 10375 10374 10373 10372 10371 10370 10368 10367 10366 10365 10363 10362 10361 10360 10358 10357 10355 10354 10352 10351 10349 10348 10346 10344 10342 10341 10339 10337 10335 10333 10331 10329 10327 10325 10323 10320 10318 10316 10314 10311 10310 10308 10307 10306 10304 10302 10299 10296 10294 10293 10291 10289 10286 10283 10281 10278 10275 10272 10269 10266 10263 10261 10258 10256 10255 10253 10251 10249 10247 10246 10245 10243 10240
10380 10380 10379 10378 10378 10377 10376 10376 10375 10375 10374 10373 10371 10371 10370 10369 10368 10366 10365 10364 10363 10362 10361 10360 10358 10356 10355 10354 10353 10351 10350 10348 10347 10345 10343 10341 10340 10338 10336 10335 10333 10331 10328 10326 10324 10322 10320 10318 10316 10313 10311 10309 10307 10305 10303 10301 10300 10299 10296 10294 10291 10288 10286 10285 10283 10281 10278 10274 10271 10269 10266 10263 10260 10258 10255 10253 10251 10249 10248 10246 10245 10243 10241 10240 10238 10236
10376 10375 10375 10375 10374 10373 10373 10372 10371 10370 10370 10368 10368 10366 10366 10365 10364 10363 10361 10360 10359 10358 10356 10355 10353 10352 10350 10349 10348 10347 10346 10344 10343 10341 10339 10338 10335 10333 10331 10330 10328 10326 10324 10321 10319 10317 10315 10313 10311 10309 10306 10305 10302 10300 10298 10296 10295 10293 10291 10289 10286 10283 10280 10277 10276 10274 10271 10268 10266 10263 10260 10258 10255 10252 10250 10248 10246 10244 10243 10241 10240 10239 10237 10236 10234 10232
10372 10371 10371 10370 10370 10369 10368 10368 10366 10366 10365 10364 10363 10362 10361 10361 10360 10359 10357 10356 10355 10353 10352 10351 10349 10348 10346 10345 10343 10342 10341 10340 10338 10336 10335 10333 10331 10329 10327 10325 10323 10321 10319 10317 10315 10312 10310 10308 10306 10304 10302 10300 10297 10295 10293 10291 10289 10287 10285 10283 10281 10278 10275 10271 10270 10267 10265 10262 10260 10258 10255 10252 10250 10246 10245 10242 10240 10239 10238 10236 10235 10234 10233 10231 10230 10228
10368 10368 10367 10366 10366 10365 10364 10363 10362 10361 10361 10360 10359 10358 10357 10356 10355 10355 10353 10351 10350 10349 10348 10346 10345 10343 10341 10340 10339 10338 10336 10335 10333 10331 10330 10328 10326 10325 10323 10320 10318 10316 10314 10311 10310 10307 10305 10302 10300 10298 10296 10295 10293 10290 10288 10286 10283 10281 10279 10277 10275 10272 10269 10266 10264 10261 10259 10256 10254 10251 10250 10247 10245 10241 10239 10237 10235 10234 10233 10231 10230 10229 10228 10226 10225 10223
10364 10363 10363 10362 10361 10360 10360 10359 10358 10357 10356 10355 10355 10353 10353 10351 10351 10350 10348 10347 10346 10345 10343 10342 10340 10338 10336 10335 10334 10333 10331 10329 10328 10326 10325 10324 10322 10320 10318 10316 10313 10311 10309 10306 10305 10303 10300 10298 10295 10293 10291 10289 10286 10285 10283 10281 10278 10276 10273 10271 10269 10266 10263 10261 10258 10256 10253 10251 10248 10246 10244 10242 10240 10237 10235 10232 10230 10228 10228 10226 10226 10225 10223 10222 10221 10219
10360 10359 10358 10358 10356 10356 10355 10354 10353 10352 10351 10350 10350 10349 10348 10347 10346 10345 10343 10343 10341 10340 10338 10337 10336 10334 10332 10331 10330 10328 10326 10324 10323 10321 10320 10319 10318 10316 10314 10311 10309 10306 10304 10302 10300 10297 10295 10293 10291 10288 10286 10284 10281 10279 10277 10275 10273 10271 10268 10265 10263 10260 10257 10255 10253 10250 10248 10246 10243 10241 10239 10237 10235 10232 10230 10228 10225 10223 10222 10221 10221 10220 10219 10218 10216 10215
10355 10355 10354 10353 10352 10351 10350 10350 10349 10348 10346 10346 10345 10344 10343 10343 10341 10340 10339 10338 10336 10335 10333 10332 10330 10329 10328 10326 10325 10323 10321 10320 10318 10316 10315 10313 10312 10311 10309 10307 10305 10302 10300 10297 10295 10292 10290 10288 10286 10284 10282 10280 10276 10274 10271 10270 10268 10265 10263 10260 10257 10255 10251 10249 10247 10245 10243 10241 10238 10236 10235 10233 10230 10228 10225 10223 10220 10218 10217 10216 10216 10215 10215 10213 10212 10210
10351 10350 10350 10348 10348 10346 10346 10345 10344 10343 10342 10341 10340 10340 10338 10338 10337 10336 10334 10333 10331 10330 10329 10327 10326 10324 10323 10321 10320 10318 10316 10315 10313 10311 10310 10308 10306 10305 10303 10301 10300 10297 10295 10292 10290 10288 10285 10283 10280 10279 10278 10275 10273 10269 10266 10264 10262 10260 10257 10255 10252 10249 10246 10243 10241 10240 10238 10236 10234 10232 10230 10228 10226 10224 10221 10218 10216 10213 10212 10211 10211 10210 10210 10209 10208 10206
10346 10346 10345 10344 10343 10342 10341 10340 10340 10338 10338 10336 10336 10335 10334 10333 10332 10331 10330 10328 10327 10326 10324 10323 10321 10320 10318 10316 10315 10313 10312 10310 10308 10306 10305 10303 10301 10299 10297 10295 10293 10291 10289 10286 10285 10282 10280 10276 10275 10273 10272 10271 10269 10266 10261 10258 10256 10254 10252 10250 10247 10244 10241 10238 10236 10235 10233 10231 10229 10227 10226 10224 10222 10220 10217 10215 10211 10209 10208 10206 10206 10205 10205 10205 10203 10201
10342 10341 10341 10340 10339 10338 10337 10336 10335 10334 10333 10332 10331 10330 10329 10328 10327 10326 10325 10324 10323 10321 10320 10318 10317 10315 10313 10311 10310 10309 10307 10306 10304 10302 10300 10298 10296 10295 10292 10290 10288 10286 10283 10281 10278 10276 10274 10271 10268 10266 10265 10265 10265 10262 10258 10255 10251 10249 10246 10244 10241 10239 10236 10233 10231 10230 10228 10226 10225 10223 10221 10219 10217 10215 10213 10210 10208 10205 10203 10201 10201 10200 10200 10200 10198 10197